• In Uzbekistan
  • List of Countries
  • For 7 days
  • Water Temperature
  • Satellite Maps
  • Weather Map
  • Weather Widgets
  • user-avatar
    Login

    Hourly Weather Sankt Polten

    Today, 25 February, Saturday

    Time Temperature Precipitation Wind Pressure Humidity
    00:00 0°C° 0 mm 3 mps 737 mmHg 90%
    01:00 -1°C° 0 mm 2 mps 737 mmHg 92%
    02:00 -1°C° 0 mm 2 mps 737 mmHg 92%
    03:00 -1°C° 0 mm 2 mps 738 mmHg 92%
    04:00 -1°C° 0 mm 2 mps 738 mmHg 92%
    05:00 -1°C° 0 mm 2 mps 739 mmHg 92%
    06:00 -1°C° 0 mm 2 mps 739 mmHg 91%
    07:00 -1°C° 0 mm 2 mps 740 mmHg 91%
    08:00 0°C° 0 mm 3 mps 740 mmHg 83%
    09:00 +2°C° 0 mm 3 mps 740 mmHg 75%
    10:00 +3°C° 0 mm 4 mps 741 mmHg 66%
    11:00 +4°C° 0 mm 4 mps 741 mmHg 63%
    12:00 +5°C° 0 mm 3 mps 741 mmHg 59%
    13:00 +7°C° 0 mm 3 mps 741 mmHg 55%
    14:00 +5°C° 0 mm 3 mps 740 mmHg 57%
    15:00 +6°C° 0 mm 2 mps 740 mmHg 60%
    16:00 +7°C° 0 mm 1 mps 740 mmHg 62%
    17:00 +6°C° 0 mm 1 mps 740 mmHg 68%
    18:00 +4°C° 0 mm 1 mps 740 mmHg 75%
    19:00 +2°C° 0 mm 1 mps 740 mmHg 81%
    20:00 +2°C° 0 mm 1 mps 740 mmHg 82%
    21:00 +2°C° 0 mm 1 mps 740 mmHg 82%
    22:00 +2°C° 0 mm 1 mps 740 mmHg 83%
    23:00 +2°C° 0 mm 1 mps 740 mmHg 82%

    Tomorrow, 26 February, Sunday

    Time Temperature Precipitation Wind Pressure Humidity
    00:00 +1°C° 0 mm 2 mps 740 mmHg 82%
    01:00 +1°C° 0 mm 2 mps 740 mmHg 81%
    02:00 +1°C° 0 mm 2 mps 739 mmHg 80%
    03:00 +1°C° 0 mm 2 mps 739 mmHg 79%
    04:00 +1°C° 0 mm 2 mps 738 mmHg 77%
    05:00 +1°C° 0 mm 2 mps 738 mmHg 76%
    06:00 +1°C° 0 mm 2 mps 738 mmHg 74%
    07:00 +1°C° 0 mm 2 mps 737 mmHg 72%
    08:00 +4°C° 0 mm 1 mps 737 mmHg 65%
    09:00 +6°C° 0 mm 1 mps 737 mmHg 59%
    10:00 +8°C° 0 mm 1 mps 737 mmHg 52%
    11:00 +9°C° 0 mm 1 mps 737 mmHg 51%
    12:00 +10°C° 0 mm 1 mps 737 mmHg 50%
    13:00 +11°C° 0 mm 1 mps 737 mmHg 48%
    14:00 +11°C° 0 mm 1 mps 736 mmHg 56%
    15:00 +10°C° 0 mm 1 mps 736 mmHg 63%
    16:00 +9°C° 0 mm 1 mps 736 mmHg 70%
    17:00 +8°C° 0 mm 1 mps 736 mmHg 73%
    18:00 +7°C° 0 mm 1 mps 736 mmHg 76%
    19:00 +5°C° 0 mm 1 mps 736 mmHg 79%
    20:00 +5°C° 0 mm 1 mps 736 mmHg 79%
    21:00 +5°C° 0 mm 1 mps 736 mmHg 79%
    22:00 +5°C° 0 mm 1 mps 735 mmHg 79%
    23:00 +5°C° 0 mm 1 mps 735 mmHg 80%

    Day after tomorrow, 27 February, Monday

    Time Temperature Precipitation Wind Pressure Humidity
    00:00 +4°C° 0 mm 1 mps 735 mmHg 81%
    01:00 +4°C° 0 mm 1 mps 735 mmHg 82%
    02:00 +4°C° 0 mm 1 mps 735 mmHg 83%
    03:00 +3°C° 0 mm 1 mps 734 mmHg 84%
    04:00 +3°C° 0 mm 1 mps 734 mmHg 85%
    05:00 +3°C° 0 mm 1 mps 734 mmHg 84%
    06:00 +3°C° 0 mm 1 mps 734 mmHg 83%
    07:00 +3°C° 0 mm 1 mps 733 mmHg 82%
    08:00 +6°C° 0 mm 1 mps 733 mmHg 76%
    09:00 +8°C° 0 mm 1 mps 733 mmHg 71%
    10:00 +10°C° 0 mm 1 mps 733 mmHg 65%
    11:00 +11°C° 0 mm 1 mps 732 mmHg 64%
    12:00 +12°C° 0 mm 2 mps 731 mmHg 62%
    13:00 +13°C° 0 mm 2 mps 731 mmHg 61%
    14:00 +12°C° 0 mm 2 mps 730 mmHg 65%
    15:00 +12°C° 0 mm 1 mps 730 mmHg 70%
    16:00 +12°C° 0 mm 1 mps 729 mmHg 74%
    17:00 +10°C° 0 mm 1 mps 729 mmHg 80%
    18:00 +8°C° 0 mm 1 mps 729 mmHg 86%
    19:00 +5°C° 0 mm 1 mps 729 mmHg 91%
    20:00 +5°C° 0 mm 1 mps 728 mmHg 92%
    21:00 +5°C° 0 mm 1 mps 728 mmHg 92%
    22:00 +5°C° 0 mm 1 mps 728 mmHg 92%
    23:00 +5°C° 0 mm 1 mps 728 mmHg 92%

    28 February, Tuesday

    Time Temperature Precipitation Wind Pressure Humidity
    00:00 +4°C° 0 mm 1 mps 727 mmHg 91%
    01:00 +4°C° 0 mm 1 mps 727 mmHg 91%
    02:00 +4°C° 0 mm 1 mps 727 mmHg 91%
    03:00 +4°C° 0 mm 1 mps 726 mmHg 91%
    04:00 +3°C° 0 mm 1 mps 726 mmHg 91%
    05:00 +3°C° 0 mm 1 mps 726 mmHg 91%
    06:00 +3°C° 0 mm 1 mps 726 mmHg 90%
    07:00 +3°C° 0 mm 1 mps 726 mmHg 90%
    08:00 +5°C° 0 mm 1 mps 726 mmHg 82%
    09:00 +7°C° 0 mm 1 mps 726 mmHg 75%
    10:00 +10°C° 0 mm 1 mps 726 mmHg 67%
    11:00 +10°C° 0 mm 1 mps 725 mmHg 67%
    12:00 +10°C° 0 mm 2 mps 725 mmHg 66%
    13:00 +11°C° 0 mm 3 mps 724 mmHg 65%
    14:00 +11°C° 0 mm 3 mps 723 mmHg 69%
    15:00 +12°C° 0 mm 2 mps 722 mmHg 72%
    16:00 +12°C° 0 mm 2 mps 721 mmHg 76%
    17:00 +9°C° 0.1 mm 2 mps 721 mmHg 82%
    18:00 +7°C° 0.1 mm 2 mps 721 mmHg 88%
    19:00 +6°C° 0.1 mm 2 mps 721 mmHg 94%
    20:00 +5°C° 1.5 mm 2 mps 722 mmHg 92%
    21:00 +4°C° 1.5 mm 3 mps 723 mmHg 91%
    22:00 +4°C° 1.5 mm 4 mps 724 mmHg 89%
    23:00 +2°C° 0.1 mm 5 mps 725 mmHg 89%

    1 March, Wednesday

    Time Temperature Precipitation Wind Pressure Humidity
    00:00 +2°C° 0.1 mm 5 mps 725 mmHg 88%
    01:00 +2°C° 0.1 mm 6 mps 725 mmHg 88%
    02:00 +2°C° 0.2 mm 6 mps 726 mmHg 88%
    03:00 +2°C° 0.2 mm 7 mps 727 mmHg 88%
    04:00 +1°C° 0.2 mm 8 mps 728 mmHg 88%
    05:00 0°C° 0 mm 8 mps 729 mmHg 88%
    06:00 0°C° 0 mm 7 mps 730 mmHg 88%
    07:00 -1°C° 0 mm 6 mps 732 mmHg 88%
    08:00 0°C° 0 mm 7 mps 732 mmHg 85%
    09:00 +2°C° 0 mm 7 mps 733 mmHg 82%
    10:00 +1°C° 0 mm 8 mps 734 mmHg 80%
    11:00 +3°C° 0 mm 7 mps 734 mmHg 76%
    12:00 +4°C° 0 mm 7 mps 734 mmHg 73%
    13:00 +5°C° 0 mm 7 mps 734 mmHg 70%
    14:00 +6°C° 0 mm 5 mps 733 mmHg 70%
    15:00 +6°C° 0 mm 4 mps 733 mmHg 70%
    16:00 +8°C° 0 mm 2 mps 733 mmHg 70%
    17:00 +6°C° 0 mm 2 mps 733 mmHg 74%
    18:00 +5°C° 0 mm 2 mps 733 mmHg 78%
    19:00 +4°C° 0 mm 2 mps 733 mmHg 83%
    20:00 +4°C° 0 mm 2 mps 732 mmHg 83%
    21:00 +3°C° 0 mm 3 mps 732 mmHg 83%
    22:00 +3°C° 0 mm 3 mps 732 mmHg 84%
    23:00 +4°C° 0 mm 3 mps 732 mmHg 84%

    2 March, Thursday

    Time Temperature Precipitation Wind Pressure Humidity
    00:00 +4°C° 0 mm 3 mps 732 mmHg 84%
    01:00 +4°C° 0 mm 4 mps 732 mmHg 84%
    02:00 +5°C° 0.1 mm 4 mps 733 mmHg 85%
    03:00 +5°C° 0.1 mm 5 mps 733 mmHg 86%
    04:00 +5°C° 0.1 mm 5 mps 734 mmHg 87%
    05:00 +5°C° 0 mm 5 mps 735 mmHg 88%
    06:00 +3°C° 0 mm 5 mps 735 mmHg 89%
    07:00 +3°C° 0 mm 5 mps 736 mmHg 89%
    08:00 +5°C° 0 mm 5 mps 736 mmHg 83%
    09:00 +6°C° 0 mm 5 mps 736 mmHg 76%
    10:00 +7°C° 0 mm 5 mps 737 mmHg 70%
    11:00 +8°C° 0 mm 5 mps 737 mmHg 66%
    12:00 +9°C° 0 mm 5 mps 736 mmHg 63%
    13:00 +11°C° 0 mm 4 mps 736 mmHg 60%
    14:00 +11°C° 0 mm 4 mps 736 mmHg 64%
    15:00 +11°C° 0 mm 3 mps 736 mmHg 68%
    16:00 +12°C° 0 mm 2 mps 736 mmHg 73%
    17:00 +9°C° 0 mm 2 mps 736 mmHg 79%
    18:00 +8°C° 0 mm 2 mps 736 mmHg 85%
    19:00 +6°C° 0 mm 2 mps 736 mmHg 91%
    20:00 +6°C° 0 mm 2 mps 737 mmHg 92%
    21:00 +5°C° 0 mm 2 mps 737 mmHg 93%
    22:00 +5°C° 0 mm 2 mps 737 mmHg 94%
    23:00 +4°C° 0 mm 2 mps 737 mmHg 94%
    Show more